Regional Weather Roundup
Issued by NWS

Home | Current Version | Previous Version | Text Only | Print | Product List | Glossary On
Versions: 1 2 3 4 5 6 7 8 9 10 11 12 13 14 15 16 17 18 19 20 21 22 23 24 25 26 27 28 29 30 31 32 33 34 35 36 37 38 39 40 41 42 43 44 45 46 47 48 49
000
ASUS45 KSLC 030410
RWRUT

UTAH REGIONAL WEATHER ROUNDUP
NATIONAL WEATHER SERVICE SALT LAKE CITY UT
1000 PM MDT TUE SEP 02 2014

UTZ001>011-023>025-030500-

NORTHERN UTAH

CITY           SKY/WX    TMP DP  RH WIND       PRES   REMARKS
HILL AFB       MOCLDY    74  40  28 E12       29.86F
LOGAN          CLEAR     69  43  38 S8        29.85F
OGDEN          PTCLDY    72  42  34 S6        29.83S
PROVO AIRPORT  CLEAR     70  52  52 SE8       29.87R
SALT LAKE CITY PTCLDY    73  46  38 SE5       29.82R
VERNAL         CLEAR     68  44  42 W3        29.95R
WENDOVER       PTCLDY    75  36  23 NW5       29.80S
HEBER CITY     CLEAR     61  41  48 W3        29.96R
WEST JORDAN    CLEAR     72  48  43 SW5       29.85S

$$

UTZ012>022-026-027-030500-

SOUTHERN UTAH

CITY           SKY/WX    TMP DP  RH WIND       PRES   REMARKS
BRYCE CANYON   CLEAR     52  35  52 W7        30.20R
CEDAR CITY     CLEAR     63  33  32 NW3       30.01R
MILFORD        CLEAR     75  33  21 S13       29.94R
MOAB/CYNLANDS  CLEAR     78  33  19 SW7       29.87R
PRICE          PTCLDY    72  33  24 N8        29.99R
ST GEORGE      CLEAR     84  36  17 SE5       29.82R
KANAB            N/A     72  32  23 CALM      30.01R

$$

REGIONAL REPORTS     COLORADO/ARIZONA

CITY           SKY/WX    TMP DP  RH WIND       PRES   REMARKS
CRAIG, CO      CLEAR     55  44  66 CALM      30.04S
GRAND JUNCTION CLEAR     70  39  32 E7        29.93R
RIFLE          CLEAR     65  38  36 E6        30.01R
MONTROSE       PTCLDY    69  42  37 SE8       30.05R
CORTEZ         CLEAR     62  39  42 E9        30.07R
PAGE, AZ       CLEAR     85  29  13 SW6       29.91R
GRAND CANYON     N/A    N/A N/A N/A MISG        N/A
KINGMAN        CLEAR     80  36  20 S10       29.89R
FLAGSTAFF      CLEAR     59  37  44 SW3       30.21R

$$

REGIONAL REPORTS    NEVADA/IDAHO/WYOMING

CITY           SKY/WX    TMP DP  RH WIND       PRES   REMARKS
LAS VEGAS, NV  CLEAR     96  31  10 S13       29.70R HX  90
ELY            CLEAR     70  30  22 S14       29.99R
ELKO           CLEAR     67  32  27 CALM      29.87R
POCATELLO, ID  CLEAR     62  41  46 E7        29.84F
BURLEY         CLEAR     64  47  53 SE5       29.78F
EVANSTON, WY   CLEAR     66  35  31 VRB6      30.07R
ROCK SPRINGS   CLEAR     67  31  26 W12       30.04R

$$


USA.gov is the U.S. government's official web portal to all federal, state and local government web resources and services.